Regional Weather Roundup
Issued by NWS Northern Indiana

Home | Current Version | Previous Version | Graphics & Text | Print | Product List | Glossary On
Versions: 1 2 3 4 5 6 7 8 9 10 11 12 13 14 15 16 17 18 19 20 21 22 23 24 25 26 27 28 29 30 31 32 33 34 35 36 37 38 39 40 41 42 43 44 45 46 47 48 49 50
000
ASUS43 KIWX 300810
RWRIWX

KIWX WEATHER ROUNDUP
NATIONAL WEATHER SERVICE NORTHERN INDIANA
400 AM EDT MON MAY 30 2016

NOTE: "FAIR" INDICATES FEW OR NO CLOUDS BELOW 12,000 FEET WITH NO
SIGNIFICANT WEATHER AND/OR OBSTRUCTIONS TO VISIBILITY.

* THESE STATIONS ARE NOT UNDER NWS QUALITY CONTROL. THEY ALSO MAY NOT
  REPORT WEATHER SUCH AS PRECIPITATION OR FOG.

INZ001>027-300900-
NORTHERN INDIANA

CITY           SKY/WX    TMP DP  RH WIND       PRES   REMARKS
GARY*          CLEAR     61  61 100 CALM      30.01F
VALPARAISO     CLEAR     64  56  75 W6        30.02S
MICHIGAN CITY* CLEAR     59  59 100 CALM      30.01F
LAPORTE*       CLEAR     62  59  88 CALM      30.02S
KNOX*          CLEAR     61  52  72 CALM      30.01S
SOUTH BEND     CLEAR     59  55  87 CALM      30.02S
GOSHEN         CLEAR     59  54  83 CALM      30.01S
MONTICELLO*    CLEAR     63  54  72 CALM      30.02S
LOGANSPORT*    CLEAR     63  54  72 W5        30.03S
ROCHESTER*     PTCLDY    63  59  88 CALM      30.03R
WARSAW*        PTCLDY    59  57  94 CALM      30.02S
ANGOLA*          N/A     57  57 100 CALM      30.01S
FORT WAYNE     MOCLDY    60  55  83 SW5       30.02S
HUNTINGTON*    CLEAR    N/A N/A N/A CALM      30.02S
PERU/GRISSOM   PTCLDY    62  55  79 SW3       30.02S
MARION*        PTCLDY    62  56  79 CALM      30.04S

$$
INZ028>050-300900-
CENTRAL INDIANA

CITY           SKY/WX    TMP DP  RH WIND       PRES   REMARKS
LAFAYETTE      CLEAR     60  57  89 CALM      30.02S
KOKOMO*        CLOUDY    63  54  72 SW3       30.03S
MUNCIE*        CLOUDY    62  55  77 CALM      30.04R
INDIANAPOLIS   PTCLDY    63  57  81 W5        30.02S

$$
MIZ043>046-050>051-056>058-064>065-071>073-077>080-300900-
SOUTHWEST LOWER MICHIGAN

CITY           SKY/WX    TMP DP  RH WIND       PRES   REMARKS
BATTLE CREEK   PTCLDY    61  56  83 W7        30.00S
BENTON HARBOR  CLEAR     63  56  78 W5        29.99S
COLDWATER*     CLEAR     59  55  87 SW5       30.00S
HILLSDALE*     PTCLDY    64  54  70 W3        30.01S
HOLLAND        PTCLDY    63  56  78 CALM      29.98S
GRAND RAPIDS   CLEAR     62  56  80 W6        29.98S
KALAMAZOO      MOCLDY    60  55  83 SW6       30.00S
STURGIS*       CLEAR     60  56  88 CALM      30.00S
THREE RIVERS*  FAIR      61  57  86 CALM      30.01S

$$
OHZ001>008-015>018-024>025-300900-
NORTHWEST OHIO

CITY           SKY/WX    TMP DP  RH WIND       PRES   REMARKS
WAUSEON*         N/A     63  63 100 SW5       30.00S
DEFIANCE       CLEAR     61  56  83 CALM      30.01S
FINDLAY        PTCLDY    62  55  77 S3        30.00S
TOLEDO EXPRESS CLEAR     58  56  93 CALM      29.99S
TOLEDO METCALF CLEAR     64  54  69 SW3       30.00R
LIMA           CLOUDY    63  58  83 CALM      30.01F

$$
AND FOR LAKE MICHIGAN COASTAL AND OPEN LAKE BUOY OBSERVATIONS

STATION/POSITION TEMP    WIND        PRES    VSBY  WAVE
                 AIR SEA DIR/SP/G                  HT/PER
                 (F)     (DEG/KT/KT) (MB)    (MI)  (FT/S)
CALUMET HARBOR    70     230/  6/  8 1015.5S
MICHIGAN CITY     69     180/  8/  9   N/A
BURNS HARBOR      67     200/  6/  8 1016.3S
SAINT JOSEPH      66     180/  5/  8 1016.3F
SOUTH LAKE BUOY   58 51  240/  8/  8 1014.7F         0
4 MI NW BRIDGMAN  64 62  220/  6/ 10   N/A           1
MICHIGAN CITY     62 59  220/  6/  8   N/A           1

$$
&&




USA.gov is the U.S. government's official web portal to all federal, state and local government web resources and services.